TimeCST,TemperatureF,Dew PointF,Humidity,Sea Level PressureIn,VisibilityMPH,Wind Direction,Wind SpeedMPH,Gust SpeedMPH,PrecipitationIn,Events,Conditions,WindDirDegrees,DateUTC
12:10 AM,23.0,19.4,86,30.24,10.0,South,4.6,-,N/A,,Overcast,190,2012-02-09 06:10:00
12:53 AM,24.1,19.0,81,30.32,10.0,South,4.6,-,N/A,,Overcast,190,2012-02-09 06:53:00
1:53 AM,24.1,19.9,84,30.30,10.0,SSW,3.5,-,N/A,,Overcast,200,2012-02-09 07:53:00
2:20 AM,24.8,19.4,80,30.20,10.0,SW,9.2,-,N/A,,Overcast,230,2012-02-09 08:20:00
2:32 AM,24.8,19.4,80,30.20,10.0,SW,10.4,-,N/A,,Overcast,230,2012-02-09 08:32:00
2:53 AM,25.0,19.9,81,30.28,10.0,SW,10.4,-,N/A,,Overcast,230,2012-02-09 08:53:00
3:29 AM,23.0,19.4,86,30.18,10.0,WSW,13.8,-,N/A,,Mostly Cloudy,240,2012-02-09 09:29:00
3:37 AM,24.8,21.2,86,30.18,10.0,WSW,12.7,-,N/A,,Mostly Cloudy,240,2012-02-09 09:37:00
3:53 AM,24.1,21.0,88,30.26,10.0,WSW,12.7,-,N/A,,Overcast,240,2012-02-09 09:53:00
4:53 AM,23.0,21.0,92,30.25,8.0,WSW,10.4,-,N/A,,Overcast,250,2012-02-09 10:53:00
5:53 AM,23.0,21.0,92,30.24,7.0,West,9.2,-,N/A,,Overcast,260,2012-02-09 11:53:00
6:53 AM,23.0,21.0,92,30.24,7.0,WSW,9.2,-,N/A,,Overcast,240,2012-02-09 12:53:00
7:53 AM,21.9,19.9,92,30.24,6.0,West,5.8,-,N/A,,Overcast,270,2012-02-09 13:53:00
8:30 AM,21.2,19.4,93,30.13,4.0,West,6.9,-,N/A,,Overcast,260,2012-02-09 14:30:00
8:53 AM,21.0,19.9,96,30.22,4.0,West,5.8,-,N/A,,Overcast,270,2012-02-09 14:53:00
9:33 AM,21.2,19.4,93,30.11,2.5,SW,6.9,-,N/A,,Overcast,230,2012-02-09 15:33:00
9:42 AM,21.2,19.4,93,30.11,4.0,SW,6.9,-,N/A,,Overcast,220,2012-02-09 15:42:00
9:53 AM,21.0,19.9,96,30.20,4.0,SSW,9.2,-,N/A,,Overcast,200,2012-02-09 15:53:00
10:53 AM,23.0,21.0,92,30.17,7.0,South,9.2,-,N/A,,Mostly Cloudy,190,2012-02-09 16:53:00
11:13 AM,24.8,21.2,86,30.08,9.0,SSW,6.9,-,N/A,,Scattered Clouds,200,2012-02-09 17:13:00
11:53 AM,26.1,21.9,84,30.14,10.0,SSW,8.1,-,N/A,,Clear,200,2012-02-09 17:53:00
12:53 PM,30.0,24.1,79,30.11,10.0,SSW,10.4,-,N/A,,Clear,200,2012-02-09 18:53:00
1:53 PM,32.0,25.0,75,30.08,10.0,SSW,10.4,-,N/A,,Clear,200,2012-02-09 19:53:00
2:53 PM,37.0,25.0,62,30.04,10.0,WSW,8.1,-,N/A,,Clear,240,2012-02-09 20:53:00
3:53 PM,37.0,24.1,59,30.04,10.0,WSW,10.4,-,N/A,,Clear,250,2012-02-09 21:53:00
4:53 PM,39.0,26.1,60,30.04,10.0,WSW,6.9,-,N/A,,Clear,250,2012-02-09 22:53:00
5:53 PM,36.0,27.0,70,30.04,10.0,Calm,Calm,-,N/A,,Clear,0,2012-02-09 23:53:00
6:53 PM,33.1,26.1,75,30.06,10.0,NNW,4.6,-,N/A,,Clear,330,2012-02-10 00:53:00
7:53 PM,32.0,25.0,75,30.10,10.0,NW,10.4,-,N/A,,Clear,320,2012-02-10 01:53:00
8:53 PM,34.0,19.9,56,30.14,10.0,NNW,15.0,26.5,N/A,,Clear,340,2012-02-10 02:53:00
9:53 PM,30.9,21.0,67,30.19,10.0,NNW,16.1,25.3,N/A,,Clear,340,2012-02-10 03:53:00
10:53 PM,27.0,19.9,75,30.21,10.0,North,17.3,25.3,N/A,,Clear,350,2012-02-10 04:53:00
11:48 PM,28.4,21.2,74,30.13,10.0,NNW,12.7,-,N/A,,Overcast,330,2012-02-10 05:48:00
11:53 PM,28.0,21.0,75,30.21,10.0,NNW,15.0,-,N/A,,Overcast,330,2012-02-10 05:53:00